Radiation Dose at Monitoring Post of Fukushima Daini Nuclear Power Station
Date,Time,MP-1(microSv/h),MP-2(microSv/h),MP-3(microSv/h),MP-4(microSv/h),MP-5(microSv/h),MP-6(microSv/h),MP-7(microSv/h),Wind Direction,Wind Velocity(m/s),Rain
2017/02/27,00:00,0.398,0.236,0.408,0.377,0.338,0.197,0.166,west-northwest,0.8,No
2017/02/27,00:10,0.398,0.236,0.407,0.377,0.339,0.197,0.167,west,1.4,No
2017/02/27,00:20,0.398,0.235,0.409,0.379,0.336,0.198,0.167,west,1.1,No
2017/02/27,00:30,0.398,0.236,0.409,0.378,0.337,0.197,0.167,-,CALM,No
2017/02/27,00:40,0.398,0.236,0.408,0.378,0.339,0.198,0.168,-,CALM,No
2017/02/27,00:50,0.398,0.235,0.408,0.377,0.338,0.197,0.167,-,CALM,No
2017/02/27,01:00,0.399,0.235,0.409,0.379,0.337,0.197,0.167,north-northeast,0.9,No
2017/02/27,01:10,0.397,0.234,0.409,0.379,0.338,0.196,0.167,northwest,1.0,No
2017/02/27,01:20,0.396,0.236,0.408,0.378,0.337,0.197,0.167,west-southwest,1.4,No
2017/02/27,01:30,0.398,0.236,0.408,0.378,0.338,0.197,0.167,north-northeast,2.0,No
2017/02/27,01:40,0.398,0.236,0.409,0.378,0.337,0.197,0.167,north,4.1,No
2017/02/27,01:50,0.396,0.236,0.408,0.378,0.338,0.196,0.166,north-northwest,4.0,No
2017/02/27,02:00,0.398,0.233,0.408,0.378,0.339,0.196,0.168,north-northwest,3.0,No
2017/02/27,02:10,0.397,0.234,0.409,0.379,0.337,0.197,0.167,north-northwest,3.0,No
2017/02/27,02:20,0.399,0.234,0.410,0.376,0.338,0.197,0.166,north-northwest,2.6,No
2017/02/27,02:30,0.398,0.234,0.409,0.378,0.339,0.196,0.167,north,2.8,No
2017/02/27,02:40,0.397,0.236,0.408,0.378,0.339,0.197,0.166,north,3.6,No
2017/02/27,02:50,0.399,0.236,0.411,0.379,0.337,0.196,0.167,north,2.8,No
2017/02/27,03:00,0.398,0.235,0.409,0.376,0.338,0.197,0.166,north,3.8,No
2017/02/27,03:10,0.397,0.235,0.408,0.377,0.339,0.196,0.168,north,2.2,No
2017/02/27,03:20,0.396,0.236,0.410,0.381,0.338,0.196,0.166,north-northwest,2.8,No
2017/02/27,03:30,0.399,0.235,0.409,0.377,0.337,0.197,0.167,northwest,2.8,No
2017/02/27,03:40,0.397,0.236,0.408,0.377,0.337,0.198,0.167,north,2.2,No
2017/02/27,03:50,0.398,0.237,0.407,0.378,0.338,0.198,0.167,north,4.3,No
2017/02/27,04:00,0.398,0.236,0.409,0.378,0.338,0.198,0.167,north,1.9,No
2017/02/27,04:10,0.398,0.235,0.410,0.377,0.336,0.198,0.167,north,5.7,No
2017/02/27,04:20,0.397,0.234,0.408,0.376,0.337,0.196,0.166,north,6.8,No
2017/02/27,04:30,0.398,0.236,0.409,0.377,0.337,0.197,0.166,north,5.9,No
2017/02/27,04:40,0.397,0.236,0.409,0.378,0.338,0.198,0.166,north,2.4,No
2017/02/27,04:50,0.399,0.235,0.409,0.378,0.337,0.197,0.166,north,3.1,No
2017/02/27,05:00,0.400,0.235,0.409,0.376,0.338,0.197,0.167,north,5.0,No
2017/02/27,05:10,0.398,0.235,0.409,0.378,0.337,0.197,0.166,north,5.5,No
2017/02/27,05:20,0.400,0.235,0.408,0.378,0.338,0.197,0.166,north,6.2,No
2017/02/27,05:30,0.400,0.237,0.411,0.377,0.338,0.196,0.166,north,4.5,No
2017/02/27,05:40,0.399,0.235,0.409,0.377,0.338,0.197,0.168,north,6.4,No
2017/02/27,05:50,0.399,0.236,0.409,0.378,0.337,0.196,0.166,north,5.9,No
2017/02/27,06:00,0.397,0.236,0.410,0.378,0.337,0.196,0.168,north,5.4,No
2017/02/27,06:10,0.397,0.235,0.408,0.377,0.339,0.197,0.168,north,8.3,No
2017/02/27,06:20,0.399,0.237,0.409,0.377,0.338,0.197,0.167,north,4.5,No
2017/02/27,06:30,0.398,0.237,0.409,0.378,0.338,0.197,0.167,north,7.2,No
2017/02/27,06:40,0.399,0.236,0.409,0.378,0.338,0.196,0.167,north,8.0,No
2017/02/27,06:50,0.397,0.236,0.408,0.377,0.337,0.196,0.167,north,8.1,No
2017/02/27,07:00,0.398,0.237,0.409,0.378,0.338,0.197,0.168,north,8.1,No
2017/02/27,07:10,0.399,0.236,0.410,0.377,0.337,0.197,0.166,north,7.0,No
2017/02/27,07:20,0.399,0.235,0.409,0.378,0.339,0.198,0.167,north,4.8,No
2017/02/27,07:30,0.398,0.234,0.408,0.375,0.337,0.198,0.167,north,3.6,No
2017/02/27,07:40,0.397,0.236,0.408,0.376,0.336,0.196,0.166,north,5.9,No
2017/02/27,07:50,0.400,0.234,0.410,0.376,0.338,0.196,0.166,north,5.1,No
2017/02/27,08:00,0.397,0.236,0.409,0.375,0.336,0.196,0.166,north,3.2,No
2017/02/27,08:10,0.398,0.235,0.409,0.375,0.338,0.197,0.165,north-northeast,4.8,No
2017/02/27,08:20,0.396,0.234,0.408,0.377,0.337,0.197,0.166,north,4.2,No
2017/02/27,08:30,0.397,0.234,0.407,0.377,0.337,0.197,0.167,north,4.8,No
2017/02/27,08:40,0.397,0.235,0.410,0.375,0.338,0.195,0.167,north,3.1,No
2017/02/27,08:50,0.398,0.235,0.410,0.376,0.336,0.197,0.168,north-northeast,2.5,No
2017/02/27,09:00,0.398,0.234,0.408,0.377,0.338,0.196,0.166,north-northeast,5.0,No
2017/02/27,09:10,0.397,0.234,0.407,0.375,0.337,0.197,0.167,north,4.6,No
2017/02/27,09:20,0.398,0.234,0.409,0.377,0.337,0.196,0.166,north,3.6,No
2017/02/27,09:30,0.396,0.234,0.409,0.374,0.337,0.195,0.166,north,5.4,No
2017/02/27,09:40,0.395,0.235,0.409,0.377,0.337,0.197,0.166,north-northeast,5.8,No
2017/02/27,09:50,0.396,0.234,0.408,0.374,0.338,0.196,0.165,north-northeast,6.7,No
2017/02/27,10:00,0.395,0.236,0.410,0.375,0.335,0.196,0.166,north-northeast,10.4,No
2017/02/27,10:10,0.396,0.233,0.407,0.374,0.337,0.194,0.166,north-northeast,7.6,No
2017/02/27,10:20,0.388,0.230,0.402,0.373,0.329,0.193,0.166,northeast,8.6,No
2017/02/27,10:30,0.382,0.226,0.394,0.367,0.325,0.191,0.163,northeast,9.0,No
2017/02/27,10:40,0.385,0.228,0.397,0.369,0.328,0.192,0.163,north-northeast,9.1,No
2017/02/27,10:50,0.400,0.235,0.412,0.380,0.342,0.198,0.168,north-northeast,9.8,No
2017/02/27,11:00,0.401,0.238,0.414,0.377,0.341,0.198,0.167,northeast,9.4,No
2017/02/27,11:10,0.400,0.235,0.412,0.379,0.341,0.197,0.168,north-northeast,7.5,No
2017/02/27,11:20,0.399,0.234,0.410,0.374,0.341,0.198,0.168,north-northeast,7.5,No
2017/02/27,11:30,0.393,0.235,0.408,0.378,0.340,0.196,0.168,northeast,7.4,No
2017/02/27,11:40,0.385,0.236,0.407,0.378,0.339,0.197,0.167,north-northeast,8.6,No
2017/02/27,11:50,0.394,0.234,0.410,0.375,0.339,0.196,0.167,north-northeast,8.9,No
2017/02/27,12:00,0.396,0.235,0.407,0.379,0.337,0.196,0.166,north-northeast,8.9,No
2017/02/27,12:10,0.404,0.236,0.406,0.376,0.336,0.196,0.166,north-northeast,8.3,No
2017/02/27,12:20,0.400,0.234,0.408,0.378,0.337,0.196,0.167,north-northeast,8.3,No
2017/02/27,12:30,0.400,0.234,0.406,0.377,0.338,0.196,0.166,north-northeast,6.2,No
2017/02/27,12:40,0.397,0.234,0.407,0.376,0.335,0.196,0.166,north-northeast,6.4,No
2017/02/27,12:50,0.399,0.234,0.407,0.376,0.338,0.197,0.166,northeast,6.4,No
2017/02/27,13:00,0.397,0.235,0.405,0.375,0.337,0.197,0.167,north-northeast,7.5,No
2017/02/27,13:10,0.398,0.235,0.407,0.378,0.336,0.196,0.166,north-northeast,6.1,No
2017/02/27,13:20,0.397,0.234,0.407,0.375,0.336,0.196,0.165,north-northeast,6.4,No
2017/02/27,13:30,0.396,0.234,0.407,0.379,0.338,0.196,0.166,north-northeast,6.2,No
2017/02/27,13:40,0.398,0.235,0.409,0.377,0.337,0.196,0.165,north-northeast,5.6,No
2017/02/27,13:50,0.398,0.235,0.408,0.377,0.339,0.196,0.167,northeast,6.0,No
2017/02/27,14:00,0.397,0.235,0.406,0.377,0.340,0.197,0.168,northeast,5.0,No
2017/02/27,14:10,0.397,0.234,0.407,0.376,0.336,0.196,0.167,north-northeast,7.3,No
2017/02/27,14:20,0.398,0.232,0.405,0.377,0.337,0.196,0.167,northeast,7.5,No
2017/02/27,14:30,0.395,0.228,0.405,0.379,0.339,0.196,0.167,north-northeast,8.4,No
2017/02/27,14:40,0.397,0.234,0.408,0.376,0.337,0.196,0.167,northeast,7.2,No
2017/02/27,14:50,0.396,0.234,0.405,0.376,0.338,0.196,0.166,northeast,6.3,No
2017/02/27,15:00,0.396,0.235,0.408,0.377,0.337,0.196,0.167,north-northeast,7.3,No
2017/02/27,15:10,0.397,0.236,0.406,0.378,0.338,0.197,0.167,northeast,6.7,No
2017/02/27,15:20,0.396,0.235,0.399,0.380,0.338,0.196,0.168,northeast,6.3,No
2017/02/27,15:30,0.397,0.235,0.394,0.378,0.339,0.196,0.166,north-northeast,6.3,No
2017/02/27,15:40,0.397,0.234,0.401,0.378,0.336,0.197,0.167,northeast,5.6,No
2017/02/27,15:50,0.398,0.235,0.410,0.379,0.338,0.196,0.166,north-northeast,4.2,No
2017/02/27,16:00,0.399,0.235,0.409,0.378,0.339,0.196,0.167,north-northeast,4.2,No
2017/02/27,16:10,0.399,0.235,0.410,0.377,0.336,0.196,0.167,north-northeast,5.6,No
2017/02/27,16:20,0.397,0.235,0.410,0.378,0.330,0.195,0.166,north-northeast,8.7,No
2017/02/27,16:30,0.398,0.235,0.407,0.378,0.332,0.198,0.167,north,2.9,No
2017/02/27,16:40,0.397,0.235,0.408,0.378,0.339,0.196,0.167,north-northeast,3.9,No
2017/02/27,16:50,0.396,0.235,0.411,0.378,0.341,0.195,0.165,north-northeast,4.5,No
2017/02/27,17:00,0.397,0.234,0.408,0.378,0.341,0.196,0.166,north-northeast,3.2,No
2017/02/27,17:10,0.397,0.235,0.408,0.377,0.339,0.196,0.163,north-northeast,4.0,No
2017/02/27,17:20,0.397,0.235,0.408,0.378,0.338,0.197,0.159,north,4.5,No
2017/02/27,17:30,0.397,0.235,0.409,0.378,0.337,0.196,0.160,north-northeast,2.7,No
2017/02/27,17:40,0.397,0.235,0.408,0.377,0.339,0.196,0.169,northeast,8.7,No
2017/02/27,17:50,0.398,0.235,0.407,0.377,0.337,0.197,0.168,north-northeast,6.7,No
2017/02/27,18:00,0.396,0.235,0.410,0.379,0.336,0.197,0.167,north-northeast,7.8,No
2017/02/27,18:10,0.397,0.235,0.409,0.375,0.338,0.196,0.168,northeast,8.2,No
2017/02/27,18:20,0.399,0.235,0.406,0.376,0.338,0.197,0.167,northeast,5.6,No
2017/02/27,18:30,0.397,0.235,0.410,0.369,0.337,0.197,0.167,northeast,6.7,No
2017/02/27,18:40,0.396,0.235,0.408,0.375,0.336,0.197,0.166,northeast,7.2,No
2017/02/27,18:50,0.397,0.235,0.408,0.379,0.337,0.198,0.167,northeast,8.0,No
2017/02/27,19:00,0.398,0.234,0.407,0.378,0.337,0.195,0.167,northeast,8.4,No
2017/02/27,19:10,0.396,0.235,0.409,0.378,0.338,0.196,0.166,northeast,8.0,No
2017/02/27,19:20,0.398,0.236,0.407,0.379,0.338,0.195,0.167,northeast,6.7,No
2017/02/27,19:30,0.399,0.235,0.409,0.378,0.338,0.197,0.167,northeast,8.7,No
2017/02/27,19:40,0.399,0.235,0.408,0.376,0.338,0.197,0.167,northeast,8.3,No
2017/02/27,19:50,0.396,0.235,0.410,0.378,0.338,0.198,0.168,northeast,6.8,No
2017/02/27,20:00,0.399,0.236,0.407,0.378,0.337,0.197,0.167,north-northeast,7.1,No
2017/02/27,20:10,0.400,0.236,0.407,0.376,0.337,0.197,0.167,north-northeast,6.2,No
2017/02/27,20:20,0.399,0.235,0.409,0.376,0.338,0.196,0.166,north-northeast,7.7,No
2017/02/27,20:30,0.398,0.235,0.408,0.379,0.337,0.197,0.167,northeast,7.1,No
2017/02/27,20:40,0.397,0.236,0.408,0.377,0.338,0.196,0.167,north-northeast,6.2,No
2017/02/27,20:50,0.398,0.235,0.409,0.375,0.338,0.196,0.167,northeast,6.6,No
2017/02/27,21:00,0.398,0.235,0.410,0.377,0.336,0.196,0.166,northeast,6.7,No
2017/02/27,21:10,0.397,0.235,0.409,0.377,0.336,0.197,0.167,northeast,6.6,No
2017/02/27,21:20,0.397,0.236,0.407,0.376,0.337,0.198,0.167,northeast,5.6,Yes
2017/02/27,21:30,0.398,0.235,0.409,0.377,0.339,0.197,0.167,north-northeast,5.3,No
2017/02/27,21:40,0.398,0.236,0.409,0.377,0.337,0.196,0.167,northeast,5.8,No
2017/02/27,21:50,0.398,0.236,0.407,0.379,0.336,0.197,0.165,north-northeast,6.2,No
2017/02/27,22:00,0.397,0.235,0.407,0.375,0.338,0.197,0.167,north-northeast,6.4,No
2017/02/27,22:10,0.399,0.236,0.409,0.376,0.337,0.197,0.166,north-northeast,4.9,No
2017/02/27,22:20,0.397,0.235,0.409,0.378,0.337,0.197,0.166,north,3.2,No
2017/02/27,22:30,0.398,0.237,0.406,0.376,0.338,0.197,0.167,north,5.4,No
2017/02/27,22:40,0.398,0.236,0.409,0.377,0.338,0.197,0.167,north,4.1,No
2017/02/27,22:50,0.397,0.237,0.411,0.379,0.338,0.196,0.167,north-northwest,5.3,No
2017/02/27,23:00,0.398,0.235,0.408,0.378,0.338,0.197,0.166,north,5.6,No
2017/02/27,23:10,0.397,0.235,0.408,0.377,0.338,0.197,0.167,north,5.5,No
2017/02/27,23:20,0.400,0.235,0.410,0.378,0.339,0.197,0.167,north-northwest,6.1,No
2017/02/27,23:30,0.397,0.236,0.409,0.378,0.339,0.197,0.167,north-northwest,5.6,No
2017/02/27,23:40,0.398,0.236,0.409,0.376,0.338,0.196,0.167,north-northwest,5.3,No
2017/02/27,23:50,0.396,0.236,0.408,0.378,0.337,0.197,0.167,northwest,2.2,No
